Location: Northam
(31.6525°S, 116.6655°E)
Time: 11:50:43
(UTC+08:00)

X-37B - Pass Details

Date: 22 January 2021
Orbit: 383 x 391 km, 45.0° (Epoch: 27 February)

Event Time Altitude Azimuth Distance (km) Brightness Sun altitude
Exits shadow 04:20:22 21° 342° (NNW) 931 2.0 -13.7°
Maximum altitude 04:22:03 39° 40° (NE) 598 1.5 -13.4°
Drops below altitude 10° 04:25:04 10° 111° (ESE) 1,425 4.8 -12.9°
Sets 04:27:13 0° 118° (ESE) 2,285 6.6 -12.5°
